Location: Cactus School
(34.5700°N, 118.0931°W)
Time: 09:34:30
(UTC-07:00)

Vanguard 1 Rocket - Pass Details

Date: 20 April 2024
Orbit: 650 x 4220 km, 34.3° (Epoch: 22 May)

Event Time Altitude Azimuth Distance (km) Brightness Sun altitude
Rises 00:40:49 0° 281° (WNW) 4,453 11.1 -43.6°
Reaches altitude 10° 00:43:19 10° 276° (W) 3,796 10.6 -43.7°
Enters shadow 00:44:54 17° 271° (W) 3,434 10.3 -43.7°
Exits shadow 01:15:34 - 134° (SE) 7,501 11.8 -43.3°
Sets 01:18:40 0° 133° (SE) 8,158 12.0 -43.2°
